Bradford, PA

8:35 PM EDT on October 19, 2017 (GMT -0400)
Bradford Regional

Weather History for KBFD - August, 2014

Change the Weather History Date:

Saturday, August 9, 2014

  Actual Average Record
Temperature  
Mean Temperature 62 °F 65 °F  
Max Temperature 76 °F 77 °F 91 °F (2001)
Min Temperature 48 °F 53 °F 39 °F (1989)
Degree Days  
Heating Degree Days 3 1  
Month to date heating degree days 21 1  
Since 1 June heating degree days 200 210  
Since 1 July heating degree days 115 65  
Cooling Degree Days 0 2  
Month to date cooling degree days 4 18  
Year to date cooling degree days 141 142  
Since 1 June cooling degree days 123 132  
Growing Degree Days 12 (Base 50)    
Moisture  
Dew Point 52 °F    
Average Humidity 67    
Maximum Humidity 96    
Minimum Humidity 38    
Precipitation  
Precipitation 0.00 in 0.14 in 1.11 in (1998)
Month to date precipitation 1.49 1.22  
Year to date precipitation 27.06 27.06  
Sea Level Pressure  
Sea Level Pressure 30.16 in    
Wind  
Wind Speed 3 mph (SE)    
Max Wind Speed 10 mph    
Max Gust Speed 14 mph    
Visibility 10 miles    
Events      
T = Trace of Precipitation, MM = Missing Value Source: NWS Daily Summary

Daily Weather History Graph

Daily Weather History Graph

Search for Another Location

Airport or City:

Trip Planner

Search our weather history database for the weather conditions in past years. The results will help you decide how hot, cold, wet, or windy it might be!

Date:

Astronomy

Aug. 09, 2014 Rise Set
Actual Time 6:16 AM EDT 8:22 PM EDT
Civil Twilight 5:46 AM EDT 8:53 PM EDT
Nautical Twilight 5:08 AM EDT 9:30 PM EDT
Astronomical Twilight 4:27 AM EDT 10:11 PM EDT
Moon 7:22 PM EDT (8/9) 4:55 AM EDT (8/9)
Length of Visible Light 15h 07m
Length of Day
14h 06m
Waxing Gibbous, 98% of the Moon is Illuminated
Aug 9
Waxing Gibbous
Aug 10
Full
Aug 17
Last Quarter
Aug 25
New
Sep 2
First Quarter

Hourly Weather History & Observations

Time (EDT) Temp. Dew Point Humidity Pressure Visibility Wind Dir Wind Speed Gust Speed Precip Events Conditions
12:53 AM 53.1 °F 48.9 °F 86% 30.16 in 10.0 mi Calm Calm - N/A   Clear
1:53 AM 53.1 °F 48.9 °F 86% 30.15 in 10.0 mi Calm Calm - N/A   Clear
2:53 AM 52.0 °F 50.0 °F 93% 30.15 in 10.0 mi Calm Calm - N/A   Clear
3:53 AM 50.0 °F 48.0 °F 93% 30.16 in 10.0 mi Calm Calm - N/A   Clear
4:53 AM 50.0 °F 46.9 °F 89% 30.17 in 10.0 mi Calm Calm - N/A   Clear
5:53 AM 48.9 °F 46.0 °F 90% 30.18 in 10.0 mi Calm Calm - N/A   Clear
6:53 AM 48.9 °F 46.0 °F 90% 30.18 in 10.0 mi Calm Calm - N/A   Clear
7:53 AM 54.0 °F 51.1 °F 90% 30.19 in 10.0 mi Calm Calm - N/A   Clear
8:53 AM 60.1 °F 55.0 °F 83% 30.18 in 10.0 mi SE 4.6 mph - N/A   Clear
9:53 AM 66.0 °F 55.0 °F 68% 30.17 in 10.0 mi ESE 6.9 mph - N/A   Clear
10:53 AM 69.1 °F 54.0 °F 58% 30.18 in 10.0 mi SE 8.1 mph - N/A   Clear
11:53 AM 72.0 °F 55.0 °F 55% 30.18 in 10.0 mi ESE 8.1 mph - N/A   Clear
12:53 PM 73.0 °F 54.0 °F 51% 30.17 in 10.0 mi SE 8.1 mph - N/A   Partly Cloudy
1:53 PM 73.0 °F 52.0 °F 48% 30.17 in 10.0 mi South 5.8 mph - N/A   Partly Cloudy
2:53 PM 75.0 °F 52.0 °F 44% 30.15 in 10.0 mi SSE 6.9 mph - N/A   Partly Cloudy
3:53 PM 73.9 °F 50.0 °F 43% 30.15 in 10.0 mi SSW 3.5 mph - N/A   Clear
4:53 PM 75.9 °F 48.9 °F 38% 30.14 in 10.0 mi South 4.6 mph - N/A   Clear
5:53 PM 75.0 °F 51.1 °F 43% 30.14 in 10.0 mi ESE 3.5 mph - N/A   Clear
6:53 PM 73.0 °F 54.0 °F 51% 30.14 in 10.0 mi East 4.6 mph - N/A   Clear
7:53 PM 69.1 °F 57.0 °F 65% 30.14 in 10.0 mi Calm Calm - N/A   Clear
8:53 PM 62.1 °F 55.9 °F 80% 30.14 in 10.0 mi Calm Calm - N/A   Clear
9:53 PM 62.1 °F 55.0 °F 78% 30.15 in 10.0 mi Calm Calm - N/A   Clear